マクノート彗星

C/2009 R1 ( McNaught )

English version
Home page
Updated on November 14, 2010

---------------------------------------------------------------------

・ プロフィール

発見日 2009年9月9日
発見光度 17.3等
発見者 R. H. McNaught (Siding Spring)

・ 写真集

・ 軌道要素

The following orbital elements are taken from MPC 68902:

Epoch 2010 June 13.0 TT = JDT 2455360.5
T 2010 July 2.6852 TT                                   MPC
q   0.405037             (2000.0)            P               Q
z  -0.000824       Peri.  130.7014      -0.4149301      -0.6912649
 +/-0.000007       Node   322.6216      +0.1933677      +0.5683588
e   1.000334       Incl.   77.0332      +0.8890680      -0.4462300
From 130 observations 2009 July 20-Dec. 29, mean residual 0".5.

・ 星図

・ 光度変化

        m1 =  6.5 + 5 logΔ + 12.0 log r  [   ,-24]  (              〜2010年 6月 8日)
        m1 =  5.0 + 5 logΔ +  1.0 log r  [-24, 24]  (2010年 6月 8日〜2010年 7月26日)
        m1 =  6.5 + 5 logΔ + 12.0 log r  [ 24, 64]  (2010年 7月26日〜2010年 9月 4日)
        m1 = -1.5 + 5 logΔ + 60   log r  [ 64,   ]  (2010年 9月 4日〜              )

        ※ 灰色の曲線は、m1 = 6.5 + 5 logΔ + 12.0 log r の光度曲線です。

---------------------------------------------------------------------

軌道要素はMPCのEphemerides and Orbital Elementsに掲載されたものです。
星図はステラナビゲータ Ver.8 (アストロアーツ) で作成したものです。
光度グラフはComet for Windowsで作成したものです。

---------------------------------------------------------------------

Copyright(C) Seiichi Yoshida (comet@aerith.net). All rights reserved.